Location: Unspecified
(42.3650°N, 71.1030°W)
Time: 05:10:53
(UTC+00:00)

Explorer 11/Cluster Stage 4 - Pass Details

Date: 23 June 2024
Orbit: 465 x 1216 km, 28.8° (Epoch: 13 July)

Event Time Altitude Azimuth Distance (km) Brightness Sun altitude
Rises 04:56:27 0° 257° (WSW) 4,020 10.1 -24.2°
Enters shadow 04:58:24 - 250° (WSW) 3,468 9.7 -24.2°
Reaches altitude 10° 05:00:26 10° 240° (WSW) 2,955 - -24.1°
Maximum altitude 05:04:57 18° 202° (SSW) 2,287 - -24.1°
Drops below altitude 10° 05:09:04 10° 162° (SSE) 2,633 - -24.0°
Sets 05:12:21 0° 143° (SE) 3,420 - -23.9°
